FW6365 Weather Reports


Display with metric or nautical units.
time (UTC)temp
F
wind
direction
speed
MPH
gust
MPH
rain 1hr
in
rain 24hr
in
rain mn
in
humidity
%
barometer
mb
20260906005025 70 218 0.0 4.0 0.00 0.18 0.01 66 1016.3
20260906004544 71 109 1.0 4.0 0.00 0.18 0.01 62 1016.2
20260906004036 70 327 0.0 2.0 0.00 0.18 0.01 65 1016.2
20260906003529 69 328 1.0 2.0 0.00 0.18 0.01 65 1016.3
20260906003059 69 306 0.0 2.0 0.00 0.18 0.01 69 1016.2
20260906002523 68 0 1.0 2.0 0.00 0.18 0.01 71 1016.2
20260906002025 68 271 0.0 2.0 0.00 0.18 0.01 73 1016.3
20260906001549 68 263 0.0 3.0 0.00 0.18 0.01 71 1016.3
20260906001024 67 316 1.0 3.0 0.00 0.18 0.01 69 1016.3
20260906000529 67 0 0.0 2.0 0.00 0.18 0.01 72 1016.3
20260906000050 66 313 1.0 5.0 0.00 0.18 0.01 74 1016.4
20260905235523 66 313 3.0 5.0 0.00 0.18 0.01 71 1016.2
20260905235027 67 317 2.0 3.0 0.00 0.18 0.01 71 1016.4
20260905234549 68 319 2.0 4.0 0.00 0.18 0.01 70 1016.3
20260905234027 69 344 1.0 4.0 0.00 0.18 0.01 61 1016.2
20260905233528 69 351 1.0 3.0 0.00 0.18 0.01 62 1016.2
20260905233050 69 330 1.0 2.0 0.00 0.18 0.01 64 1016.2
20260905232524 69 340 1.0 2.0 0.00 0.18 0.01 63 1016.2
20260905232023 70 82 0.0 3.0 0.00 0.18 0.01 65 1016.2
20260905231548 70 88 0.0 4.0 0.00 0.18 0.01 61 1016.3
20260905231024 70 101 1.0 7.0 0.00 0.18 0.01 59 1016.3
20260905230524 70 346 1.0 8.0 0.00 0.18 0.01 59 1016.3
20260905230053 71 100 3.0 8.0 0.00 0.18 0.01 59 1016.3
20260905225528 72 81 1.0 7.0 0.00 0.18 0.01 57 1016.3
20260905225024 72 313 2.0 7.0 0.00 0.18 0.01 59 1016.4
20260905224551 73 259 1.0 6.0 0.00 0.18 0.01 61 1016.3
20260905224024 72 217 2.0 7.0 0.00 0.18 0.01 61 1016.3
20260905223525 72 205 4.0 7.0 0.00 0.18 0.01 61 1016.4
20260905223048 71 225 5.0 7.0 0.00 0.18 0.01 61 1016.3
20260905222524 71 195 4.0 6.0 0.00 0.18 0.01 61 1016.4
20260905222023 71 246 3.0 6.0 0.00 0.18 0.01 61 1016.5
20260905221606 71 165 1.0 4.0 0.00 0.18 0.01 62 1016.6
20260905221027 70 242 1.0 5.0 0.00 0.18 0.01 65 1016.7
20260905220530 69 279 2.0 5.0 0.00 0.18 0.01 64 1016.8
20260905220052 70 315 2.0 7.0 0.00 0.18 0.01 66 1016.8
20260905215524 69 304 3.0 7.0 0.00 0.18 0.01 66 1016.8
20260905215023 70 288 4.0 8.0 0.00 0.18 0.01 65 1016.9
20260905214547 70 285 4.0 8.0 0.00 0.18 0.01 64 1017.0
20260905214024 70 249 2.0 8.0 0.00 0.18 0.01 67 1017.0
20260905213527 70 253 3.0 8.0 0.00 0.18 0.01 67 1017.0
20260905213057 69 217 3.0 7.0 0.00 0.18 0.01 67 1017.0
20260905212526 69 24 1.0 7.0 0.00 0.18 0.01 68 1017.1
20260905212028 68 264 3.0 8.0 0.00 0.18 0.01 68 1017.2
20260905211550 68 237 5.0 12.0 0.00 0.18 0.01 69 1017.1
20260905211023 68 191 7.0 12.0 0.00 0.18 0.01 70 1017.3
20260905210525 68 217 6.0 11.0 0.00 0.18 0.01 74 1017.2
20260905210053 68 217 5.0 11.0 0.00 0.18 0.01 73 1017.4
20260905205524 68 223 5.0 9.0 0.00 0.18 0.01 74 1017.5
20260905205026 68 238 3.0 7.0 0.00 0.18 0.01 71 1017.5
20260905204547 67 174 2.0 7.0 0.00 0.18 0.01 72 1017.5
20260905204024 67 199 4.0 7.0 0.00 0.18 0.01 72 1017.7
20260905203528 66 199 3.0 7.0 0.00 0.18 0.01 75 1017.6
20260905203055 66 269 2.0 8.0 0.00 0.18 0.01 78 1017.6
20260905202523 66 212 5.0 8.0 0.00 0.18 0.01 77 1017.8
20260905202024 66 261 4.0 9.0 0.00 0.18 0.01 78 1017.8
20260905201609 66 178 4.0 9.0 0.00 0.18 0.01 78 1017.9
20260905201024 66 242 3.0 8.0 0.00 0.18 0.01 78 1018.0
20260905200524 65 152 3.0 7.0 0.00 0.18 0.01 80 1017.9
20260905200051 64 98 1.0 3.0 0.00 0.18 0.01 80 1018.0
20260905195525 63 0 0.0 3.0 0.00 0.18 0.01 81 1018.1
20260905195023 63 0 2.0 3.0 0.00 0.18 0.01 82 1018.1
20260905194549 64 304 2.0 4.0 0.00 0.18 0.01 82 1018.2
20260905194024 64 0 1.0 5.0 0.00 0.18 0.01 81 1018.2
20260905193524 64 341 2.0 5.0 0.00 0.18 0.01 80 1018.2
20260905193107 65 97 1.0 5.0 0.00 0.18 0.01 79 1018.3
20260905192525 65 98 2.0 5.0 0.00 0.18 0.01 82 1018.3
20260905192024 64 236 3.0 5.0 0.00 0.18 0.01 81 1018.3
20260905191549 64 174 1.0 3.0 0.00 0.18 0.01 82 1018.4
20260905191023 64 216 1.0 4.0 0.00 0.18 0.01 82 1018.5
20260905190524 63 236 1.0 4.0 0.00 0.18 0.01 83 1018.5
20260905190048 62 249 3.0 4.0 0.00 0.18 0.01 86 1018.5
20260905185523 62 275 1.0 4.0 0.00 0.18 0.01 90 1018.5
20260905185026 61 279 1.0 4.0 0.00 0.18 0.01 93 1018.5
20260905184557 61 171 1.0 5.0 0.00 0.18 0.01 93 1018.6
20260905184024 60 263 2.0 5.0 0.00 0.18 0.01 94 1018.6
20260905183527 61 275 1.0 3.0 0.00 0.18 0.01 97 1018.5
20260905183050 60 197 0.0 2.0 0.00 0.18 0.01 97 1018.6
20260905182531 59 150 1.0 2.0 0.00 0.18 0.01 97 1018.7
20260905182028 59 243 0.0 2.0 0.00 0.18 0.01 98 1018.7
20260905181605 58 0 0.0 2.0 0.00 0.18 0.01 99 1018.8
20260905181027 57 0 0.0 3.0 0.00 0.18 0.01 98 1018.7
20260905180523 57 322 1.0 3.0 0.00 0.18 0.01 98 1018.8
20260905180055 56 312 1.0 3.0 0.01 0.18 0.01 98 1018.8
20260905175525 56 0 1.0 3.0 0.01 0.18 0.01 98 1018.7
20260905175024 56 0 0.0 3.0 0.01 0.18 0.01 98 1018.7
20260905174602 55 314 1.0 3.0 0.01 0.18 0.01 98 1018.7
20260905174027 55 171 0.0 1.0 0.01 0.18 0.01 99 1018.8
20260905173524 55 0 0.0 1.0 0.01 0.18 0.01 98 1018.8
20260905173051 54 0 0.0 1.0 0.01 0.18 0.01 98 1018.8
20260905172524 54 0 0.0 1.0 0.01 0.18 0.01 98 1018.9
20260905172027 54 0 0.0 1.0 0.01 0.18 0.01 98 1018.8
20260905171548 54 147 0.0 2.0 0.01 0.18 0.01 98 1018.9
20260905171023 54 152 1.0 2.0 0.01 0.18 0.01 98 1018.8
20260905170526 53 162 1.0 2.0 0.01 0.18 0.01 98 1018.8
20260905170050 53 162 0.0 2.0 0.00 0.17 0.00 98 1018.7
20260905165525 53 0 1.0 3.0 0.00 0.17 0.00 98 1018.8
20260905165026 53 0 1.0 3.0 0.00 0.17 0.00 98 1018.8
20260905164550 53 117 1.0 3.0 0.00 0.17 0.00 98 1018.8
20260905164025 53 114 2.0 4.0 0.00 0.17 0.00 98 1018.8
20260905163527 53 116 1.0 4.0 0.00 0.17 0.00 99 1018.6
20260905163048 53 125 2.0 4.0 0.00 0.17 0.00 98 1018.7
20260905162526 53 140 1.0 2.0 0.00 0.17 0.00 98 1018.6
20260905162029 53 192 0.0 0.0 0.00 0.17 0.00 99 1018.5
20260905161602 0 0.0 0.0 0.00 0.17 0.00 1018.5
20260905161025 0 0.0 0.0 0.00 0.17 0.00 1018.5
20260905160524 0 0.0 0.0 0.00 0.17 0.00 1018.5
20260905160051 0 0.0 0.0 0.00 0.17 0.00 1018.4
20260905155524 0 0.0 0.0 0.00 0.17 0.00 1018.5
20260905155023 0 0.0 0.0 0.00 0.17 0.00 1018.5
20260905154547 0 0.0 0.0 0.00 0.17 0.00 1018.6
20260905154024 0 0.0 0.0 0.00 0.17 0.00 1018.6
20260905153524 0 0.0 0.0 0.00 0.17 0.00 1018.5
20260905153048 0 0.0 0.0 0.00 0.17 0.00 1018.5
20260905152526 0 0.0 0.0 0.00 0.17 0.00 1018.4
20260905152026 0 0.0 0.0 0.00 0.17 0.00 1018.2
20260905151602 0 0.0 0.0 0.00 0.17 0.00 1018.2
20260905151029 0 0.0 0.0 0.00 0.17 0.00 1018.1
20260905150528 0 0.0 0.0 0.00 0.17 0.00 1018.2
20260905150052 0 0.0 0.0 0.00 0.17 0.00 1018.3
20260905145525 0 0.0 0.0 0.00 0.17 0.00 1018.3
20260905145024 0 0.0 0.0 0.00 0.17 0.00 1018.1
20260905144549 0 0.0 0.0 0.00 0.17 0.00 1018.3
20260905144030 0 0.0 0.0 0.00 0.17 0.00 1018.3
20260905143524 0 0.0 0.0 0.00 0.17 0.00 1018.3
20260905143048 0 0.0 0.0 0.00 0.17 0.00 1018.2
20260905142526 0 0.0 0.0 0.00 0.17 0.00 1018.3
20260905142026 0 0.0 0.0 0.00 0.17 0.00 1018.2
20260905141557 0 0.0 0.0 0.00 0.17 0.00 1018.3
20260905141026 0 0.0 0.0 0.00 0.17 0.00 1018.2
20260905140524 0 0.0 0.0 0.00 0.17 0.00 1018.2
20260905140048 0 0.0 0.0 0.00 0.17 0.00 1018.2
20260905135524 0 0.0 0.0 0.00 0.17 0.00 1018.1
20260905135023 0 0.0 0.0 0.00 0.17 0.00 1018.0
20260905134549 0 0.0 0.0 0.00 0.17 0.00 1017.9
20260905134025 0 0.0 0.0 0.00 0.17 0.00 1018.0
20260905133527 0 0.0 0.0 0.00 0.17 0.00 98 1018.0
20260905133049 0 0.0 1.0 0.00 0.17 0.00 98 1018.0
20260905132523 46 0 0.0 1.0 0.00 0.17 0.00 98 1017.9
20260905132024 46 121 0.0 1.0 0.00 0.17 0.00 98 1018.0
20260905131551 46 122 0.0 1.0 0.00 0.17 0.00 98 1017.8
20260905131025 46 0 0.0 1.0 0.00 0.17 0.00 98 1017.8
20260905130526 46 0 0.0 1.0 0.00 0.17 0.00 98 1017.8
20260905130057 46 121 0.0 1.0 0.00 0.17 0.00 98 1017.8
20260905125528 46 0 0.0 1.0 0.00 0.17 0.00 98 1017.8
20260905125026 46 122 0.0 0.0 0.00 0.17 0.00 98 1017.7
20260905124552 46 0 0.0 0.0 0.00 0.17 0.00 98 1017.8
20260905124027 46 0 0.0 0.0 0.00 0.17 0.00 98 1017.8
20260905123524 46 0 0.0 0.0 0.00 0.17 0.00 98 1017.8
20260905123049 46 0 0.0 1.0 0.00 0.17 0.00 98 1017.8
20260905122528 46 0 0.0 1.0 0.00 0.17 0.00 98 1017.9
20260905122024 45 0 0.0 0.0 0.00 0.17 0.00 98 1017.8
20260905121558 45 0 0.0 0.0 0.00 0.17 0.00 98 1017.8
20260905121027 45 0 0.0 0.0 0.00 0.17 0.00 98 1017.8
20260905120527 45 0 0.0 0.0 0.00 0.17 0.00 98 1017.8
20260905120052 45 0 0.0 0.0 0.00 0.17 0.00 98 1017.7
20260905115528 45 0 0.0 0.0 0.00 0.17 0.00 98 1017.8
20260905115027 45 0 0.0 1.0 0.00 0.17 0.00 98 1017.7
20260905114553 45 0 0.0 1.0 0.00 0.17 0.00 98 1017.7
20260905114024 45 0 0.0 0.0 0.00 0.17 0.00 98 1017.8
20260905113527 45 0 0.0 0.0 0.00 0.17 0.00 98 1017.6
20260905113047 45 0 0.0 0.0 0.00 0.17 0.00 98 1017.6
20260905112527 46 0 0.0 0.0 0.00 0.17 0.00 98 1017.7
20260905112033 46 0 0.0 0.0 0.00 0.17 0.00 98 1017.7
20260905111554 45 0 0.0 1.0 0.00 0.17 0.00 98 1017.7
20260905111027 46 0 0.0 1.0 0.00 0.17 0.00 98 1017.7
20260905110527 46 0 0.0 0.0 0.00 0.17 0.00 98 1017.7
20260905110057 46 0 0.0 1.0 0.00 0.17 0.00 97 1017.7
20260905105528 46 0 0.0 1.0 0.00 0.17 0.00 98 1017.7
20260905105027 46 122 0.0 1.0 0.00 0.17 0.00 98 1017.6
20260905104609 46 0 0.0 1.0 0.00 0.17 0.00 98 1017.6
20260905104028 46 0 0.0 1.0 0.00 0.17 0.00 98 1017.5
20260905103528 46 0 0.0 1.0 0.00 0.17 0.00 98 1017.4
20260905103049 46 0 0.0 1.0 0.00 0.17 0.00 97 1017.4
20260905102529 46 122 0.0 1.0 0.00 0.17 0.00 97 1017.4
20260905102027 46 122 1.0 1.0 0.00 0.17 0.00 97 1017.3
20260905101600 46 0 0.0 1.0 0.00 0.17 0.00 98 1017.3
20260905101031 46 0 0.0 0.0 0.00 0.17 0.00 97 1017.3
20260905100529 46 0 0.0 0.0 0.00 0.17 0.00 98 1017.3
20260905100051 46 0 0.0 0.0 0.00 0.17 0.00 97 1017.3
20260905095524 46 0 0.0 0.0 0.00 0.17 0.00 97 1017.4
20260905095028 47 0 0.0 0.0 0.00 0.17 0.00 98 1017.3
20260905094549 47 0 0.0 0.0 0.00 0.17 0.00 98 1017.4
20260905094023 47 0 0.0 0.0 0.00 0.17 0.00 97 1017.4
20260905093528 47 0 0.0 0.0 0.00 0.17 0.00 98 1017.4
20260905093045 47 0 0.0 1.0 0.00 0.17 0.00 97 1017.3
20260905092528 47 0 0.0 1.0 0.00 0.17 0.00 98 1017.4
20260905092026 47 0 0.0 1.0 0.00 0.17 0.00 98 1017.2
20260905091608 47 0 0.0 1.0 0.00 0.17 0.00 97 1017.2
20260905091022 47 0 0.0 1.0 0.00 0.17 0.00 97 1017.2
20260905090527 47 0 0.0 1.0 0.00 0.17 0.00 97 1017.1
20260905090048 47 142 0.0 1.0 0.00 0.17 0.00 97 1017.2
20260905085523 47 0 0.0 0.0 0.00 0.17 0.00 97 1017.2
20260905085024 48 0 0.0 1.0 0.00 0.17 0.00 97 1017.1
20260905084607 47 0 0.0 3.0 0.00 0.17 0.00 97 1017.2
20260905084028 48 0 0.0 3.0 0.00 0.17 0.00 97 1017.1
20260905083522 48 173 2.0 3.0 0.00 0.17 0.00 97 1017.2
20260905083043 48 159 0.0 1.0 0.00 0.17 0.00 97 1017.0
20260905082524 48 0 0.0 0.0 0.00 0.17 0.00 97 1017.0
20260905082026 48 0 0.0 0.0 0.00 0.17 0.00 97 1017.0
20260905081550 49 0 0.0 0.0 0.00 0.17 0.00 97 1017.0
20260905081024 49 0 0.0 0.0 0.00 0.17 0.00 97 1016.9
20260905080527 49 0 0.0 0.0 0.00 0.17 0.00 97 1016.9
20260905080049 49 0 0.0 1.0 0.00 0.17 0.00 97 1017.0
20260905075524 49 0 0.0 1.0 0.00 0.17 0.00 97 1016.7
20260905075025 49 159 0.0 1.0 0.00 0.17 0.00 98 1016.8
20260905074551 49 0 0.0 0.0 0.00 0.17 0.00 97 1016.8
20260905074024 49 0 0.0 0.0 0.00 0.17 0.00 97 1016.8
20260905073524 49 0 0.0 0.0 0.00 0.17 0.00 97 1016.8
20260905073042 49 0 0.0 0.0 0.00 0.17 0.00 97 1016.7
20260905072524 49 0 0.0 0.0 0.00 0.17 0.00 97 1016.6
20260905072025 49 0 0.0 0.0 0.00 0.17 0.00 97 1016.6
20260905071552 49 0 0.0 0.0 0.00 0.17 0.00 97 1016.6
20260905071025 50 0 0.0 0.0 0.00 0.17 0.00 97 1016.7
20260905070524 50 0 0.0 0.0 0.00 0.17 0.00 97 1016.6
20260905070106 50 0 0.0 0.0 0.00 0.17 0.00 97 1016.6
20260905065529 50 0 0.0 0.0 0.00 0.17 0.17 97 1016.6
20260905065026 50 0 0.0 0.0 0.00 0.17 0.17 97 1016.5
20260905064549 51 0 0.0 0.0 0.00 0.17 0.17 97 1016.5
20260905064026 51 0 0.0 0.0 0.00 0.17 0.17 97 1016.3
20260905063527 51 0 0.0 0.0 0.00 0.17 0.17 97 1016.4
20260905063051 51 0 0.0 0.0 0.00 0.17 0.17 97 1016.3
20260905062527 51 0 0.0 1.0 0.00 0.17 0.17 97 1016.3
20260905062024 51 0 0.0 1.0 0.00 0.17 0.17 97 1016.2
20260905061604 51 159 0.0 1.0 0.00 0.17 0.17 96 1016.2
20260905061024 51 0 0.0 0.0 0.00 0.17 0.17 97 1016.1
20260905060524 52 0 0.0 0.0 0.00 0.17 0.17 97 1016.2
20260905060049 52 0 0.0 0.0 0.00 0.17 0.17 97 1016.1
20260905055526 52 0 0.0 0.0 0.00 0.17 0.17 96 1016.2
20260905055024 52 0 0.0 0.0 0.00 0.17 0.17 96 1016.2
20260905054551 53 159 0.0 0.0 0.00 0.17 0.17 97 1016.1
20260905054029 53 0 0.0 0.0 0.00 0.17 0.17 97 1016.1
20260905053526 53 0 0.0 1.0 0.00 0.17 0.17 97 1016.1
20260905053052 53 0 0.0 1.0 0.00 0.17 0.17 96 1016.2
20260905052529 53 159 1.0 1.0 0.00 0.17 0.17 96 1016.1
20260905052026 53 0 0.0 0.0 0.00 0.17 0.17 96 1016.2
20260905051550 53 0 0.0 0.0 0.01 0.17 0.17 96 1016.1
20260905051024 53 175 0.0 0.0 0.01 0.17 0.17 96 1016.0
20260905050524 54 175 0.0 0.0 0.01 0.17 0.17 96 1016.1
20260905050049 54 0 0.0 1.0 0.01 0.17 0.17 96 1016.1
20260905045523 54 175 0.0 1.0 0.01 0.17 0.17 96 1016.2
20260905045027 54 178 0.0 1.0 0.01 0.17 0.17 96 1016.1
20260905044544 54 177 0.0 1.0 0.01 0.17 0.17 95 1016.0
20260905044026 55 170 0.0 0.0 0.01 0.17 0.17 96 1016.0
20260905043527 55 0 0.0 0.0 0.01 0.17 0.17 96 1015.9
20260905043051 55 0 0.0 0.0 0.01 0.17 0.17 95 1016.0
20260905042524 55 0 0.0 0.0 0.01 0.17 0.17 96 1015.9
20260905042024 55 171 0.0 0.0 0.01 0.17 0.17 95 1015.9
20260905041555 56 0 0.0 1.0 0.00 0.16 0.16 95 1015.9
20260905041025 56 171 0.0 1.0 0.00 0.16 0.16 95 1016.0
20260905040524 56 169 0.0 1.0 0.01 0.16 0.16 95 1015.9
20260905040054 56 162 1.0 2.0 0.03 0.16 0.16 95 1015.9
20260905035524 56 162 1.0 2.0 0.04 0.16 0.16 94 1015.9
20260905035027 57 162 1.0 2.0 0.05 0.16 0.16 94 1015.9
20260905034556 57 141 0.0 1.0 0.05 0.16 0.16 95 1015.8
20260905034026 57 0 0.0 2.0 0.05 0.16 0.16 94 1015.7
20260905033529 57 335 1.0 2.0 0.06 0.16 0.16 94 1015.7
20260905033056 57 346 0.0 2.0 0.06 0.16 0.16 94 1015.8
20260905032525 57 338 0.0 2.0 0.07 0.16 0.16 94 1015.8
20260905032024 57 40 0.0 4.0 0.10 0.16 0.16 94 1015.8
20260905031550 57 313 0.0 4.0 0.11 0.16 0.16 93 1015.7
20260905031025 57 33 2.0 6.0 0.11 0.16 0.16 93 1015.7
20260905030525 58 28 2.0 7.0 0.14 0.15 0.15 93 1015.6
20260905030049 58 322 3.0 7.0 0.13 0.13 0.13 92 1015.5
20260905025528 58 42 2.0 5.0 0.12 0.12 0.12 92 1015.6
20260905025027 58 257 1.0 4.0 0.11 0.11 0.11 91 1015.8
20260905024551 58 259 1.0 3.0 0.11 0.11 0.11 90 1015.8
20260905024027 59 0 0.0 10.0 0.11 0.11 0.11 89 1015.7
20260905023524 59 111 2.0 10.0 0.10 0.10 0.10 88 1015.8
20260905023049 60 116 4.0 10.0 0.10 0.10 0.10 86 1015.7
20260905022530 60 104 1.0 12.0 0.09 0.09 0.09 83 1015.7
20260905022025 61 76 3.0 12.0 0.05 0.05 0.05 80 1015.5
20260905021549 62 304 2.0 10.0 0.05 0.05 0.05 77 1015.5
20260905021027 64 111 4.0 10.0 0.05 0.05 0.05 74 1015.4
20260905020527 66 108 4.0 13.0 0.01 0.01 0.01 68 1015.2
20260905020051 67 71 4.0 13.0 0.00 0.00 0.00 62 1014.7
20260905015526 68 84 1.0 6.0 0.00 0.00 0.00 63 1014.6
20260905015028 68 56 3.0 7.0 0.00 0.00 0.00 61 1014.4
20260905014551 69 5 4.0 7.0 0.00 0.00 0.00 61 1014.3
20260905014024 69 335 2.0 5.0 0.00 0.00 0.00 60 1014.3
20260905013527 69 13 2.0 8.0 0.00 0.00 0.00 60 1014.3
20260905013049 69 345 3.0 8.0 0.00 0.00 0.00 60 1014.2
20260905012524 69 13 2.0 5.0 0.00 0.00 0.00 61 1014.1
20260905012023 70 318 2.0 5.0 0.00 0.00 0.00 59 1014.0
20260905011548 71 24 2.0 4.0 0.00 0.00 0.00 59 1014.0
20260905011024 71 343 1.0 4.0 0.00 0.00 0.00 58 1014.0
20260905010523 70 345 2.0 5.0 0.00 0.00 0.00 59 1014.0
20260905010057 70 24 2.0 7.0 0.00 0.00 0.00 58 1014.0
20260905005528 70 16 2.0 10.0 0.00 0.00 0.00 59 1013.9